Weather History for Seattle Boeing, WA

Change the Weather History Date:

Sunday, June 16, 2013

  Actual Average Record
Temperature  
Mean Temperature 66 °F -  
Max Temperature 75 °F 68 °F 88 °F (1961)
Min Temperature 57 °F 51 °F 42 °F (1954)
Cooling Degree Days 1    
Growing Degree Days 16 (Base 50)    
Moisture  
Dew Point 51 °F    
Average Humidity 60    
Maximum Humidity 82    
Minimum Humidity 44    
Precipitation  
Precipitation 0.00 in - - ()
Sea Level Pressure  
Sea Level Pressure 30.06 in    
Wind  
Wind Speed 4 mph (SSW)    
Max Wind Speed 9 mph    
Max Gust Speed -    
Visibility 10 miles    
Events      
Averages and records for this station are not official NWS values.
T = Trace of Precipitation, MM = Missing Value Source: NWS Daily Summary

Daily Weather History Graph

Daily Weather History Graph

Search for Another Location

Airport:

Trip Planner

Search our weather history database for the weather conditions in past years. The results will help you decide how hot, cold, wet, or windy it might be!

Date:

Astronomy

Jun. 16, 2013 Rise Set
Actual Time 5:11 AM PDT 9:08 PM PDT
Civil Twilight 4:30 AM PDT 9:49 PM PDT
Nautical Twilight 3:34 AM PDT 10:45 PM PDT
Astronomical Twilight 2:05 AM PDT 12:14 AM PDT
Moon 1:24 PM PDT (6/16) 12:47 AM PDT (6/16)
Length of Visible Light 17h 18m
Length of Day
15h 57m
Waxing Crescent, 51% of the Moon is Illuminated
Jun 16
Waxing Crescent
Jun 23
Full
Jun 29
Last Quarter
Jul 8
New
Jul 15
First Quarter

Hourly Weather History & Observations

Time (PDT) Temp. Dew Point Humidity Pressure Visibility Wind Dir Wind Speed Gust Speed Precip Events Conditions
12:53 AM 63.0 °F 48.0 °F 58% 30.00 in 10.0 mi Calm Calm - N/A   Clear
1:53 AM 61.0 °F 48.9 °F 64% 30.02 in 10.0 mi SSE 4.6 mph - N/A   Clear
2:53 AM 60.1 °F 48.9 °F 67% 30.03 in 10.0 mi South 3.5 mph - N/A   Clear
3:53 AM 57.9 °F 48.9 °F 72% 30.04 in 10.0 mi SSE 3.5 mph - N/A   Clear
4:53 AM 57.0 °F 50.0 °F 77% 30.04 in 10.0 mi SSE 4.6 mph - N/A   Clear
5:51 AM 57.2 °F 51.8 °F 82% 30.06 in 10.0 mi South 6.9 mph - N/A   Mostly Cloudy
5:53 AM 57.9 °F 51.1 °F 78% 30.06 in 10.0 mi South 4.6 mph - N/A   Mostly Cloudy
6:53 AM 59.0 °F 51.1 °F 75% 30.07 in 10.0 mi SSW 6.9 mph - N/A   Mostly Cloudy
6:57 AM 59.0 °F 51.8 °F 77% 30.07 in 10.0 mi SSW 3.5 mph - N/A   Mostly Cloudy
7:53 AM 60.1 °F 51.1 °F 72% 30.07 in 10.0 mi SSW 5.8 mph - N/A   Mostly Cloudy
8:53 AM 61.0 °F 52.0 °F 72% 30.08 in 10.0 mi SSW 4.6 mph - N/A   Mostly Cloudy
9:53 AM 64.0 °F 52.0 °F 65% 30.07 in 10.0 mi Variable 3.5 mph - N/A   Scattered Clouds
10:53 AM 68.0 °F 53.1 °F 59% 30.07 in 10.0 mi Calm Calm - N/A   Scattered Clouds
11:53 AM 70.0 °F 52.0 °F 53% 30.06 in 10.0 mi SW 6.9 mph - N/A   Scattered Clouds
12:53 PM 71.1 °F 52.0 °F 51% 30.05 in 10.0 mi Calm Calm - N/A   Scattered Clouds
1:53 PM 73.9 °F 53.1 °F 48% 30.05 in 10.0 mi South 4.6 mph - N/A   Scattered Clouds
2:53 PM 73.0 °F 53.1 °F 49% 30.04 in 10.0 mi SSW 5.8 mph - N/A   Mostly Cloudy
3:53 PM 75.0 °F 53.1 °F 46% 30.04 in 10.0 mi SSW 6.9 mph - N/A   Mostly Cloudy
4:53 PM 75.0 °F 54.0 °F 48% 30.05 in 10.0 mi SW 6.9 mph - N/A   Mostly Cloudy
5:53 PM 73.9 °F 54.0 °F 50% 30.05 in 10.0 mi Variable 6.9 mph - N/A   Mostly Cloudy
6:53 PM 73.0 °F 50.0 °F 44% 30.06 in 10.0 mi SSW 9.2 mph - N/A   Mostly Cloudy
7:53 PM 70.0 °F 48.9 °F 47% 30.06 in 10.0 mi SW 6.9 mph - N/A   Mostly Cloudy
8:53 PM 68.0 °F 46.9 °F 47% 30.07 in 10.0 mi SW 4.6 mph - N/A   Scattered Clouds
9:53 PM 66.0 °F 48.0 °F 52% 30.08 in 10.0 mi Calm Calm - N/A   Scattered Clouds
10:53 PM 63.0 °F 48.0 °F 58% 30.10 in 10.0 mi Variable 4.6 mph - N/A   Clear
11:53 PM 62.1 °F 48.0 °F 60% 30.10 in 10.0 mi SSW 3.5 mph - N/A   Clear